When you browse on this site, cookies collect data to enhance your experience and personalize the content and advertising you see.
Visit our Privacy Policy to learn more. By continuing to use the site, you agree to this use of cookies and data.
  • In Schweiz
  • Länderverzeichnis
  • Für 7 Tage
  • Wassertemperatur
  • Satellitenkarten
  • Wetterkarte
  • Widgets
  • user-avatar
    Anmelden

    Stündliche Wetter Tolna

    Heute, 21 April, Sonntag

    Zeit Temperatur Niederschläge Wind Luftdruck Luftfeuchtigkeit
    00:00 +12°C° 0 mm 2 m/S 760 mmHg 51%
    01:00 +11°C° 0 mm 3 m/S 760 mmHg 53%
    02:00 +10°C° 0 mm 3 m/S 760 mmHg 54%
    03:00 +10°C° 0 mm 3 m/S 759 mmHg 55%
    04:00 +10°C° 0 mm 3 m/S 759 mmHg 55%
    05:00 +11°C° 0 mm 3 m/S 759 mmHg 55%
    06:00 +12°C° 0 mm 3 m/S 759 mmHg 56%
    07:00 +13°C° 0 mm 3 m/S 759 mmHg 56%
    08:00 +16°C° 0 mm 3 m/S 759 mmHg 51%
    09:00 +18°C° 0 mm 3 m/S 758 mmHg 45%
    10:00 +20°C° 0 mm 4 m/S 758 mmHg 40%
    11:00 +21°C° 0 mm 3 m/S 758 mmHg 37%
    12:00 +22°C° 0 mm 3 m/S 757 mmHg 34%
    13:00 +22°C° 0 mm 3 m/S 757 mmHg 31%
    14:00 +22°C° 0 mm 3 m/S 756 mmHg 31%
    15:00 +23°C° 0 mm 2 m/S 756 mmHg 32%
    16:00 +23°C° 0 mm 2 m/S 755 mmHg 32%
    17:00 +20°C° 0 mm 2 m/S 755 mmHg 37%
    18:00 +18°C° 0 mm 2 m/S 755 mmHg 42%
    19:00 +16°C° 0 mm 2 m/S 755 mmHg 47%
    20:00 +15°C° 0 mm 2 m/S 755 mmHg 49%
    21:00 +14°C° 0 mm 2 m/S 755 mmHg 50%
    22:00 +14°C° 0 mm 2 m/S 755 mmHg 52%
    23:00 +13°C° 0 mm 2 m/S 755 mmHg 53%

    Morgen, 22 April, Montag

    Zeit Temperatur Niederschläge Wind Luftdruck Luftfeuchtigkeit
    00:00 +13°C° 0 mm 2 m/S 754 mmHg 54%
    01:00 +12°C° 0 mm 2 m/S 754 mmHg 55%
    02:00 +12°C° 0 mm 2 m/S 754 mmHg 56%
    03:00 +10°C° 0 mm 2 m/S 753 mmHg 57%
    04:00 +10°C° 0 mm 2 m/S 753 mmHg 58%
    05:00 +12°C° 0 mm 1 m/S 753 mmHg 58%
    06:00 +13°C° 0 mm 1 m/S 753 mmHg 57%
    07:00 +15°C° 0 mm 1 m/S 753 mmHg 57%
    08:00 +16°C° 0 mm 2 m/S 752 mmHg 53%
    09:00 +18°C° 0 mm 2 m/S 752 mmHg 49%
    10:00 +19°C° 0 mm 2 m/S 752 mmHg 45%
    11:00 +20°C° 0 mm 3 m/S 752 mmHg 42%
    12:00 +21°C° 0 mm 3 m/S 751 mmHg 38%
    13:00 +22°C° 0 mm 3 m/S 750 mmHg 35%
    14:00 +22°C° 0 mm 3 m/S 750 mmHg 37%
    15:00 +22°C° 0 mm 3 m/S 750 mmHg 38%
    16:00 +22°C° 0 mm 3 m/S 749 mmHg 40%
    17:00 +20°C° 0 mm 3 m/S 749 mmHg 44%
    18:00 +19°C° 0 mm 2 m/S 749 mmHg 47%
    19:00 +17°C° 0 mm 2 m/S 749 mmHg 51%
    20:00 +16°C° 0 mm 3 m/S 749 mmHg 54%
    21:00 +14°C° 0 mm 3 m/S 749 mmHg 57%
    22:00 +14°C° 0 mm 4 m/S 749 mmHg 60%
    23:00 +14°C° 0 mm 5 m/S 749 mmHg 62%

    übermorgen, 23 April, Dienstag

    Zeit Temperatur Niederschläge Wind Luftdruck Luftfeuchtigkeit
    00:00 +13°C° 0 mm 6 m/S 749 mmHg 64%
    01:00 +13°C° 0 mm 6 m/S 749 mmHg 66%
    02:00 +13°C° 0 mm 6 m/S 749 mmHg 67%
    03:00 +11°C° 0 mm 7 m/S 749 mmHg 69%
    04:00 +11°C° 0 mm 7 m/S 749 mmHg 71%
    05:00 +11°C° 1.2 mm 7 m/S 749 mmHg 77%
    06:00 +10°C° 1.2 mm 7 m/S 749 mmHg 83%
    07:00 +9°C° 1.2 mm 7 m/S 750 mmHg 89%
    08:00 +9°C° 1.6 mm 7 m/S 750 mmHg 88%
    09:00 +9°C° 1.6 mm 8 m/S 750 mmHg 87%
    10:00 +9°C° 1.6 mm 8 m/S 750 mmHg 87%
    11:00 +11°C° 0.4 mm 7 m/S 750 mmHg 82%
    12:00 +14°C° 0.4 mm 7 m/S 750 mmHg 77%
    13:00 +16°C° 0.4 mm 7 m/S 750 mmHg 72%
    14:00 +16°C° 0.1 mm 7 m/S 749 mmHg 70%
    15:00 +17°C° 0.1 mm 8 m/S 749 mmHg 68%
    16:00 +17°C° 0.1 mm 9 m/S 748 mmHg 66%
    17:00 +16°C° 0.3 mm 9 m/S 749 mmHg 69%
    18:00 +15°C° 0.3 mm 8 m/S 749 mmHg 71%
    19:00 +12°C° 0.3 mm 8 m/S 749 mmHg 73%
    20:00 +12°C° 0.1 mm 8 m/S 749 mmHg 74%
    21:00 +12°C° 0.1 mm 7 m/S 750 mmHg 74%
    22:00 +11°C° 0.1 mm 7 m/S 750 mmHg 75%
    23:00 +11°C° 0 mm 7 m/S 750 mmHg 77%

    24 April, Mittwoch

    Zeit Temperatur Niederschläge Wind Luftdruck Luftfeuchtigkeit
    00:00 +11°C° 0 mm 7 m/S 751 mmHg 78%
    01:00 +11°C° 0 mm 7 m/S 751 mmHg 80%
    02:00 +11°C° 0 mm 6 m/S 751 mmHg 81%
    03:00 +11°C° 0 mm 6 m/S 751 mmHg 82%
    04:00 +10°C° 0 mm 6 m/S 751 mmHg 84%
    05:00 +11°C° 0 mm 6 m/S 752 mmHg 82%
    06:00 +13°C° 0 mm 6 m/S 752 mmHg 80%
    07:00 +14°C° 0 mm 6 m/S 752 mmHg 79%
    08:00 +16°C° 0 mm 6 m/S 753 mmHg 73%
    09:00 +19°C° 0 mm 6 m/S 753 mmHg 66%
    10:00 +21°C° 0 mm 7 m/S 753 mmHg 60%
    11:00 +22°C° 0.4 mm 6 m/S 753 mmHg 59%
    12:00 +23°C° 0.4 mm 6 m/S 753 mmHg 58%
    13:00 +23°C° 0.4 mm 6 m/S 753 mmHg 57%
    14:00 +23°C° 0.4 mm 5 m/S 753 mmHg 57%
    15:00 +25°C° 0.4 mm 5 m/S 753 mmHg 57%
    16:00 +25°C° 0.4 mm 4 m/S 753 mmHg 57%
    17:00 +22°C° 0.3 mm 4 m/S 753 mmHg 64%
    18:00 +20°C° 0.3 mm 3 m/S 753 mmHg 71%
    19:00 +18°C° 0.3 mm 3 m/S 753 mmHg 79%
    20:00 +17°C° 0 mm 3 m/S 753 mmHg 81%
    21:00 +17°C° 0 mm 3 m/S 754 mmHg 83%
    22:00 +16°C° 0 mm 3 m/S 754 mmHg 86%
    23:00 +14°C° 0 mm 3 m/S 754 mmHg 87%

    25 April, Donnerstag

    Zeit Temperatur Niederschläge Wind Luftdruck Luftfeuchtigkeit
    00:00 +14°C° 0 mm 3 m/S 755 mmHg 88%
    01:00 +15°C° 0 mm 2 m/S 755 mmHg 89%
    02:00 +15°C° 0 mm 2 m/S 755 mmHg 89%
    03:00 +13°C° 0 mm 3 m/S 755 mmHg 89%
    04:00 +13°C° 0 mm 3 m/S 755 mmHg 90%
    05:00 +14°C° 0 mm 3 m/S 755 mmHg 85%
    06:00 +16°C° 0 mm 3 m/S 755 mmHg 81%
    07:00 +17°C° 0 mm 3 m/S 756 mmHg 77%
    08:00 +19°C° 0 mm 4 m/S 756 mmHg 70%
    09:00 +21°C° 0 mm 4 m/S 756 mmHg 63%
    10:00 +23°C° 0 mm 4 m/S 755 mmHg 56%
    11:00 +25°C° 0 mm 5 m/S 755 mmHg 52%
    12:00 +26°C° 0 mm 5 m/S 755 mmHg 48%
    13:00 +27°C° 0 mm 6 m/S 754 mmHg 44%
    14:00 +27°C° 0 mm 5 m/S 754 mmHg 45%
    15:00 +27°C° 0 mm 5 m/S 753 mmHg 46%
    16:00 +27°C° 0 mm 5 m/S 753 mmHg 47%
    17:00 +25°C° 0 mm 4 m/S 753 mmHg 52%
    18:00 +23°C° 0 mm 4 m/S 753 mmHg 58%
    19:00 +21°C° 0 mm 3 m/S 753 mmHg 63%
    20:00 +20°C° 0 mm 3 m/S 753 mmHg 66%
    21:00 +19°C° 0 mm 4 m/S 753 mmHg 70%
    22:00 +19°C° 0 mm 4 m/S 753 mmHg 73%
    23:00 +18°C° 0 mm 3 m/S 753 mmHg 77%

    26 April, Freitag

    Zeit Temperatur Niederschläge Wind Luftdruck Luftfeuchtigkeit
    00:00 +17°C° 0 mm 3 m/S 753 mmHg 81%
    01:00 +16°C° 0 mm 3 m/S 753 mmHg 85%
    02:00 +16°C° 0 mm 2 m/S 753 mmHg 85%
    03:00 +16°C° 0 mm 2 m/S 752 mmHg 84%
    04:00 +16°C° 0 mm 2 m/S 752 mmHg 83%
    05:00 +17°C° 0 mm 2 m/S 752 mmHg 81%
    06:00 +18°C° 0 mm 3 m/S 752 mmHg 79%
    07:00 +19°C° 0 mm 3 m/S 752 mmHg 76%
    08:00 +20°C° 0 mm 3 m/S 752 mmHg 71%
    09:00 +21°C° 0 mm 3 m/S 752 mmHg 66%
    10:00 +22°C° 0 mm 3 m/S 752 mmHg 61%
    11:00 +24°C° 0 mm 3 m/S 752 mmHg 58%
    12:00 +25°C° 0 mm 3 m/S 751 mmHg 54%
    13:00 +25°C° 0 mm 4 m/S 751 mmHg 51%
    14:00 +26°C° 0 mm 4 m/S 750 mmHg 50%
    15:00 +26°C° 0 mm 4 m/S 750 mmHg 48%
    16:00 +26°C° 0 mm 3 m/S 749 mmHg 46%
    17:00 +24°C° 0.3 mm 3 m/S 750 mmHg 55%
    18:00 +22°C° 0.3 mm 3 m/S 750 mmHg 63%
    19:00 +20°C° 0.3 mm 3 m/S 750 mmHg 71%
    20:00 +17°C° 0.4 mm 4 m/S 751 mmHg 76%
    21:00 +14°C° 0.4 mm 5 m/S 752 mmHg 81%
    22:00 +10°C° 0.4 mm 6 m/S 752 mmHg 86%
    23:00 +10°C° 0 mm 6 m/S 753 mmHg 85%
    Mehr zeigen